sat.trackr.live / text

‹ back to catalog

FENGYUN 3E

NORAD 49008 · 2021-062A

PAYLOAD ACTIVE UNKNOWN

§ Identity

Operator
Country
PRC
Launch date
2021-07-04
Launch site
JSC
Launch vehicle
Mass (kg)
RCS (m²)

Purposes: earth_obs

External: N2YO · Heavens-Above · Gunter

§ Orbital elements

Epoch: 2026-05-25T03:48:56.743776Z

Period
101.42 min
Inclination
98.7500°
Eccentricity
0.0002319
Mean motion
14.19901245 rev/d
Perigee alt
824.0 km
Apogee alt
827.4 km
Semi-major
7,203.8 km
B*
-3.0097e-5
RAAN
148.8244°
Arg perigee
125.1222°
Mean anomaly
235.0172°
Rev number
25,331

§ Raw data

FENGYUN 3E1 49008U 21062A   26145.15899009 -.00000108  00000+0 -30097-4 0  99942 49008  98.7500 148.8244 0002319 125.1222 235.0172 14.19901245253313

JSON: /api/v1/satellites/49008 · /tle

For live sub-satellite position, see the globe view (requires WebGL).

§ Visibility from observer

Set your observer location to see the next 7 days of passes ≥ 10°. The values pass through the URL so the page stays shareable.

No JS? Fill the form by hand. The geolocation button needs JavaScript.

§ Radio — SatNOGS DB

ModeDescriptionDownlinkUplink
AHRPT Mode X - AHRPT 7.860 GHz
FM Mode X - DPT dumps (active over China & Sweden) 8.213 GHz
BPSK Telemetry 2.253 GHz
FM telemetry 2.219 GHz

4 transmitters · refreshed weekly from db.satnogs.org